Saturday, February 24, 2018, 10:38 AM EST
Back to Local

KMVL, Morrisville Stowe State Airport

Location: Morrisville, VT, United States Lat: 44.533
Local Time: 10:38 AM EST (15:38 GMT) Lon: -72.617
Time Zone: US/Eastern Elev: 731 ft

Show me the last for .
Show Decoded

2018-02-24 10:23 METAR KMVL 241523Z AUTO VRB03KT 10SM OVC030 03/M01 A3014 RMK AO2 UPE1456 P0000
                 T00281011 =
2018-02-24 09:54 METAR KMVL 241454Z AUTO 35004KT 9SM UP SCT019 OVC029 02/M01 A3012 RMK AO2
                 RAE1355B25E38UPB26E27B53SNB38E53 SLP210 P0000 60000 T00221006 51018 =
2018-02-24 08:54 METAR KMVL 241354Z AUTO 33005KT 10SM -RA FEW020 OVC029 03/M01 A3011 RMK AO2
                 RAB43 SLP206 P0000 T00281006 =
2018-02-24 08:46 METAR KMVL 241346Z AUTO 36007KT 10SM -RA FEW024 BKN029 OVC035 03/M01 A3011 RMK
                 AO2 RAB43 P0000 T00281006 =
2018-02-24 07:54 METAR KMVL 241254Z AUTO 05004KT 10SM OVC030 02/M01 A3010 RMK AO2 RAB27E36 SLP201
                 P0000 T00221006 =
2018-02-24 06:54 METAR KMVL 241154Z AUTO 00000KT 10SM OVC036 02/M01 A3007 RMK AO2 SLP192 60000
                 70017 T00221006 10050 20011 53020 =
2018-02-24 05:54 METAR KMVL 241054Z AUTO VRB04KT 10SM BKN033 OVC041 04/M01 A3005 RMK AO2 RAE14
                 SLP184 P0000 T00391006 =
2018-02-24 04:54 METAR KMVL 240954Z AUTO VRB04KT 10SM -RA OVC027 04/01 A3003 RMK AO2 SLP177 P0000
                 T00440006 =
2018-02-24 03:54 METAR KMVL 240854Z AUTO 00000KT 10SM -RA BKN029 OVC035 04/02 A3001 RMK AO2 RAB53
                 SLP170 P0000 60000 T00390022 53011 =
2018-02-24 03:27 METAR KMVL 240827Z AUTO 00000KT 10SM FEW026 OVC034 04/03 A3000 RMK AO2 T00390028
                 =
2018-02-24 02:54 METAR KMVL 240754Z AUTO 00000KT 10SM BKN022 OVC028 04/03 A2999 RMK AO2 SLP164
                 T00390033 =
2018-02-24 01:54 METAR KMVL 240654Z AUTO 20012KT 10SM OVC025 05/03 A2998 RMK AO2 SLP158 T00500033
                 =
2018-02-24 00:54 METAR KMVL 240554Z AUTO 00000KT 4SM BR FEW005 BKN019 OVC027 01/01 A2998 RMK AO2
                 SLP160 60000 T00110011 10033 20006 55009 =
2018-02-24 00:24 METAR KMVL 240524Z AUTO 35004KT 6SM BR FEW003 OVC021 01/01 A2997 RMK AO2
                 T00110011 =
2018-02-23 23:54 METAR KMVL 240454Z AUTO 25003KT 10SM OVC020 03/03 A2996 RMK AO2 UPB11E21RAB21E26
                 SLP154 P0000 T00330028 400331100 =
2018-02-23 22:54 METAR KMVL 240354Z AUTO 00000KT 10SM OVC024 02/01 A2997 RMK AO2 SLP157 T00170011
                 =
2018-02-23 21:54 METAR KMVL 240254Z AUTO 00000KT 10SM OVC025 01/01 A3000 RMK AO2 SLP170 60000
                 T00110011 56038 =
2018-02-23 20:54 METAR KMVL 240154Z AUTO 00000KT 10SM FEW010 BKN026 OVC034 01/01 A3004 RMK AO2
                 RAB09E41 SLP182 P0000 T00110006 =
2018-02-23 20:25 METAR KMVL 240125Z AUTO 18004KT 7SM -RA FEW009 BKN024 OVC034 01/00 A3005 RMK AO2
                 RAB09 P0000 T00060000 =
2018-02-23 19:54 METAR KMVL 240054Z AUTO 16004KT 10SM OVC024 01/00 A3007 RMK AO2
                 RAE2359UPB2359E01 SLP193 P0000 T00060000 =
2018-02-23 18:54 METAR KMVL 232354Z AUTO 16007KT 8SM -RA SCT014 OVC022 01/M01 A3012 RMK AO2
                 SNB40E50 SLP211 P0004 60017 I6000 T00061006 10011 20000 56028 =
2018-02-23 17:54 METAR KMVL 232254Z AUTO 19007KT 7SM -RA OVC017 01/M01 A3013 RMK AO2 SLP217 P0010
                 I1000 T00061006 =
2018-02-23 16:54 METAR KMVL 232154Z AUTO 18009KT 4SM RA OVC020 01/M02 A3017 RMK AO2
                 UPB06E08B31E44 SLP231 P0003 T00061022 =
2018-02-23 16:22 METAR KMVL 232122Z AUTO 19017G23KT 10SM -RA OVC028 01/M03 A3019 RMK AO2 UPB06E08
                 P0001 T00061028 =
2018-02-23 15:54 METAR KMVL 232054Z AUTO 19012G22KT 8SM -RA OVC033 01/M03 A3020 RMK AO2 PK WND
                 17029/2011 UPE50RAB50 PRESFR SLP241 P0000 60000 T00111033 56061 =
2018-02-23 14:54 METAR KMVL 231954Z AUTO 19015G29KT 10SM UP OVC036 01/M05 A3026 RMK AO2 PK WND
                 19029/1945 UPB34 PRESFR SLP259 P0000 T00111050 =
2018-02-23 13:54 METAR KMVL 231854Z AUTO 18017G26KT 10SM BKN048 BKN055 OVC070 01/M07 A3032 RMK
                 AO2 PK WND 18027/1829 SLP278 T00111072 =
2018-02-23 12:54 METAR KMVL 231754Z AUTO 18010G21KT 10SM SCT080 01/M09 A3039 RMK AO2 PRESFR
                 SLP303 T00061094 10006 21094 58056 =
2018-02-23 11:54 METAR KMVL 231654Z AUTO 20008KT 10SM FEW090 BKN110 01/M11 A3047 RMK AO2 SLP330
                 T00061106 =
2018-02-23 10:54 METAR KMVL 231554Z AUTO 20009KT 10SM OVC100 M01/M10 A3051 RMK AO2 SLP346
                 T10061100 =

Support USWX by starting your Amazon purchase here.